Location: Artiguedieu
(43.5000°N, 0.5454°E)
Time: 08:47:30
(UTC+00:00)

Explorer 7 - Pass Details

Date: 09 August 2021
Orbit: 484 x 676 km, 50.3° (Epoch: 22 September)

Event Time Altitude Azimuth Distance (km) Brightness Sun altitude
Rises 07:28:50 0° 298° (WNW) 2,606 9.8 26.2°
Reaches altitude 10° 07:30:59 10° 297° (WNW) 1,742 9.0 26.6°
Maximum altitude 07:34:55 76° 212° (SSW) 555 7.2 27.3°
Drops below altitude 10° 07:39:05 10° 127° (SE) 1,840 10.5 28.0°
Sets 07:41:25 0° 126° (SE) 2,769 11.3 28.5°
